Regional Weather Roundup
Issued by NWS

Home | Current Version | Previous Version | Graphics & Text | Print | Product List | Glossary Off
Versions: 1 2 3 4 5 6 7 8 9 10 11 12 13 14 15 16 17 18 19 20 21 22 23 24 25 26 27 28 29 30 31 32 33 34 35 36 37 38 39 40 41 42 43 44 45 46 47 48 49 50

455
ASUS45 KCYS 241310
RWRWY

WYOMING REGIONAL WEATHER ROUNDUP
NATIONAL WEATHER SERVICE CHEYENNE WY
700 AM MDT SUN JUL 24 2016

NOTE:  "FAIR" INDICATES FEW OR NO CLOUDS BELOW 12,000 FEET
WITH NO SIGNIFICANT WEATHER AND/OR OBSTRUCTIONS TO VISIBILITY.

WYZ001-241400-
YELLOWSTONE NATIONAL PARK

CITY           SKY/WX    TMP DP  RH WIND       PRES   REMARKS
LK YELLOWSTONE   N/A     36  33  89 CALM      30.37R
W YELLOWSTONE  NOT AVBL

$$
WYZ002>013-054>058-071-098>099-241400-
NORTHERN WYOMING

CITY           SKY/WX    TMP DP  RH WIND       PRES   REMARKS
JACKSON        CLEAR     39  30  70 CALM      30.30R
CODY           FAIR      55  36  47 CALM      30.19R
GREYBULL       FAIR      62  39  42 E3        30.12R
WORLAND        FAIR      61  39  44 S6        30.14R
SHERIDAN       FAIR      58  45  62 W7        30.12R
BUFFALO        FAIR      62  38  40 SE5       30.19R
GILLETTE       CLOUDY    62  43  49 S7        30.15R
HULETT         PTSUNNY   68  43  40 CALM      30.16S
NEWCASTLE      PTSUNNY   64  36  34 CALM      30.15S

$$
WYZ014>020-022>026-101>103-241400-
CENTRAL WYOMING

CITY           SKY/WX    TMP DP  RH WIND       PRES   REMARKS
BIG PINEY      FAIR      42  26  53 E5        30.32R
PINEDALE       FAIR      37  30  75 NW5       30.32S WCI  34
DUBOIS         CLOUDY    43  23  45 NW10      30.31S HAZE
LANDER         FAIR      56  37  49 CALM      30.20R
RIVERTON       FAIR      63  34  33 SE3       30.22R
CASPER         FAIR      55  39  54 N3        30.20R
DOUGLAS          N/A    N/A N/A N/A MISG      30.17R

$$
WYZ021-027>030-104>119-241400-
SOUTHERN WYOMING

CITY           SKY/WX    TMP DP  RH WIND       PRES   REMARKS
EVANSTON       FAIR      50  24  36 CALM      30.30R
KEMMERER         N/A     46  30  53 N10       30.33R
FORT BRIDGER   SUNNY     55  25  30 W7        30.32R
ROCK SPRINGS   FAIR      54  32  43 NE5       30.29R
DIXON          FAIR      51  40  68 CALM      30.30R
RAWLINS        FAIR      55  23  28 CALM      30.27R
SARATOGA       FAIR      54  39  58 NE3       30.30R
LARAMIE        FAIR      55  45  68 E6        30.28R
CHEYENNE       FAIR      66  48  52 SE9       30.19R
TORRINGTON     FAIR      67  54  63 E14       30.08R
PINE BLUFFS    LGT RAIN  63  54  72 E7        30.18S

$$




USA.gov is the U.S. government's official web portal to all federal, state and local government web resources and services.